Overview Statistics Trail Chart Weather Telemetry Raw packets
 

This is the latest recevied weather packets stored in our database for station/object K6TTR. If no packets are shown the sender has not sent any weather packets the latest 10 day(s).

<< 111 112 113 114 115 116 >>
Time Temp. Humidity Pressure Rain* Wind** Luminosity Snow
1787774546 28.33° C 20% 1022.4 hPa 0 mm - 942 W/m² -
1787774246 28.33° C 19% 1022.2 hPa 0 mm - 940 W/m² -
1787773948 28.33° C 20% 1022.2 hPa 0 mm - 935 W/m² -
1787773645 28.33° C 21% 1022.3 hPa 0 mm - 937 W/m² -
1787773349 27.78° C 21% 1022.3 hPa 0 mm - 930 W/m² -
1787773048 27.78° C 23% 1022.3 hPa 0 mm - 933 W/m² -
1787772748 27.78° C 23% 1022.3 hPa 0 mm - 926 W/m² -
1787772445 27.78° C 24% 1022.4 hPa 0 mm - 925 W/m² -
1787772147 27.22° C 26% 1022.4 hPa 0 mm - 918 W/m² -
1787771846 27.22° C 26% 1022.4 hPa 0 mm - 907 W/m² -
1787771547 27.22° C 27% 1022.3 hPa 0 mm - 904 W/m² -
1787771245 27.22° C 24% 1022.4 hPa 0 mm - 902 W/m² -
1787770948 27.22° C 27% 1022.5 hPa 0 mm - 893 W/m² -
1787770646 27.22° C 27% 1022.6 hPa 0 mm - 889 W/m² -
1787770347 26.67° C 27% 1022.5 hPa 0 mm - 884 W/m² -
1787770047 26.67° C 26% 1022.6 hPa 0 mm - 877 W/m² -
1787769747 26.67° C 27% 1022.7 hPa 0 mm - 863 W/m² -
1787769446 26.67° C 28% 1022.7 hPa 0 mm - 854 W/m² -
1787769147 26.11° C 29% 1022.8 hPa 0 mm - 849 W/m² -
1787768845 26.11° C 30% 1022.8 hPa 0 mm - 847 W/m² -
1787768546 25.56° C 32% 1022.8 hPa 0 mm - 838 W/m² -
1787768242 25.56° C 33% 1022.9 hPa 0 mm - 817 W/m² -
1787767943 25.56° C 33% 1022.8 hPa 0 mm - 652 W/m² -
1787767640 25.56° C 35% 1022.9 hPa 0 mm - 793 W/m² -
1787767341 25° C 35% 1022.8 hPa 0 mm - 761 W/m² -

* Rain latest hour (hover to see other rain measurements)
** Current wind speed in m/s (hover to see current wind gust speed)